Hourly Weather Bolshie Iodkovichi

Today, 20 June, Sunday

Time Temperature Precipitation Wind Pressure Humidity
00:00 +20°C° 0 mm 2 mps 753 mmHg 85%
01:00 +19°C° 0 mm 2 mps 753 mmHg 87%
02:00 +19°C° 0 mm 2 mps 753 mmHg 88%
03:00 +19°C° 0 mm 2 mps 753 mmHg 88%
04:00 +19°C° 0 mm 2 mps 753 mmHg 88%
05:00 +19°C° 0 mm 2 mps 753 mmHg 87%
06:00 +21°C° 0 mm 2 mps 753 mmHg 83%
07:00 +22°C° 0 mm 3 mps 753 mmHg 79%
08:00 +25°C° 0 mm 3 mps 753 mmHg 74%
09:00 +26°C° 0 mm 4 mps 753 mmHg 70%
10:00 +28°C° 0 mm 4 mps 753 mmHg 66%
11:00 +29°C° 0 mm 5 mps 753 mmHg 62%
12:00 +29°C° 0 mm 5 mps 753 mmHg 60%
13:00 +30°C° 0 mm 5 mps 752 mmHg 57%
14:00 +32°C° 0 mm 4 mps 752 mmHg 54%
15:00 +32°C° 0.1 mm 4 mps 752 mmHg 56%
16:00 +30°C° 0.1 mm 4 mps 751 mmHg 59%
17:00 +30°C° 0.1 mm 4 mps 751 mmHg 62%
18:00 +28°C° 0.3 mm 4 mps 751 mmHg 69%
19:00 +27°C° 0.3 mm 3 mps 750 mmHg 75%
20:00 +25°C° 0.3 mm 3 mps 750 mmHg 82%
21:00 +24°C° 0.2 mm 3 mps 750 mmHg 83%
22:00 +21°C° 0.2 mm 2 mps 751 mmHg 84%
23:00 +19°C° 0.2 mm 2 mps 751 mmHg 85%

Tomorrow, 21 June, Monday

Time Temperature Precipitation Wind Pressure Humidity
00:00 +19°C° 0.2 mm 2 mps 751 mmHg 87%
01:00 +20°C° 0.2 mm 2 mps 751 mmHg 88%
02:00 +20°C° 0.2 mm 3 mps 751 mmHg 90%
03:00 +20°C° 0 mm 3 mps 750 mmHg 91%
04:00 +20°C° 0 mm 3 mps 750 mmHg 93%
05:00 +19°C° 0 mm 3 mps 750 mmHg 94%
06:00 +21°C° 0 mm 3 mps 750 mmHg 89%
07:00 +22°C° 0 mm 3 mps 750 mmHg 85%
08:00 +25°C° 0 mm 4 mps 750 mmHg 80%
09:00 +26°C° 0 mm 4 mps 750 mmHg 74%
10:00 +27°C° 0 mm 4 mps 750 mmHg 68%
11:00 +29°C° 0 mm 5 mps 750 mmHg 62%
12:00 +29°C° 0 mm 5 mps 750 mmHg 59%
13:00 +29°C° 0 mm 5 mps 749 mmHg 57%
14:00 +30°C° 0 mm 5 mps 749 mmHg 54%
15:00 +29°C° 0 mm 5 mps 749 mmHg 58%
16:00 +29°C° 0 mm 5 mps 748 mmHg 63%
17:00 +29°C° 0 mm 5 mps 748 mmHg 67%
18:00 +27°C° 0.5 mm 4 mps 748 mmHg 71%
19:00 +26°C° 0.5 mm 3 mps 748 mmHg 76%
20:00 +25°C° 0.5 mm 3 mps 748 mmHg 81%
21:00 +24°C° 0 mm 2 mps 748 mmHg 83%
22:00 +23°C° 0 mm 2 mps 748 mmHg 86%
23:00 +21°C° 0 mm 2 mps 748 mmHg 89%

Day after tomorrow, 22 June, Tuesday

Time Temperature Precipitation Wind Pressure Humidity
00:00 +21°C° 0 mm 2 mps 748 mmHg 90%
01:00 +20°C° 0 mm 2 mps 748 mmHg 91%
02:00 +20°C° 0 mm 2 mps 748 mmHg 93%
03:00 +20°C° 0 mm 2 mps 748 mmHg 93%
04:00 +20°C° 0 mm 2 mps 748 mmHg 93%
05:00 +20°C° 0 mm 2 mps 748 mmHg 94%
06:00 +21°C° 0 mm 3 mps 748 mmHg 89%
07:00 +24°C° 0 mm 3 mps 749 mmHg 84%
08:00 +25°C° 0 mm 4 mps 749 mmHg 79%
09:00 +27°C° 0.1 mm 4 mps 749 mmHg 73%
10:00 +28°C° 0.1 mm 4 mps 749 mmHg 68%
11:00 +29°C° 0.1 mm 5 mps 749 mmHg 62%
12:00 +30°C° 0.1 mm 5 mps 749 mmHg 60%
13:00 +30°C° 0.1 mm 5 mps 749 mmHg 59%
14:00 +30°C° 0.1 mm 5 mps 749 mmHg 57%
15:00 +30°C° 0 mm 4 mps 749 mmHg 59%
16:00 +30°C° 0 mm 4 mps 749 mmHg 62%
17:00 +29°C° 0 mm 3 mps 749 mmHg 65%
18:00 +28°C° 0 mm 3 mps 749 mmHg 69%
19:00 +27°C° 0 mm 3 mps 749 mmHg 72%
20:00 +26°C° 0 mm 3 mps 749 mmHg 76%
21:00 +25°C° 0 mm 2 mps 749 mmHg 78%
22:00 +24°C° 0 mm 2 mps 750 mmHg 79%
23:00 +24°C° 0 mm 2 mps 750 mmHg 81%

23 June, Wednesday

Time Temperature Precipitation Wind Pressure Humidity
00:00 +23°C° 0 mm 2 mps 750 mmHg 83%
01:00 +23°C° 0 mm 2 mps 750 mmHg 84%
02:00 +21°C° 0 mm 2 mps 750 mmHg 86%
03:00 +22°C° 0 mm 1 mps 750 mmHg 86%
04:00 +23°C° 0 mm 1 mps 750 mmHg 86%
05:00 +23°C° 0 mm 1 mps 750 mmHg 86%
06:00 +24°C° 0 mm 1 mps 751 mmHg 82%
07:00 +26°C° 0 mm 2 mps 751 mmHg 77%
08:00 +27°C° 0 mm 2 mps 751 mmHg 73%
09:00 +28°C° 0.1 mm 2 mps 751 mmHg 70%
10:00 +29°C° 0.1 mm 2 mps 751 mmHg 67%
11:00 +30°C° 0.1 mm 2 mps 751 mmHg 63%
12:00 +31°C° 0.4 mm 2 mps 752 mmHg 61%
13:00 +31°C° 0.4 mm 2 mps 752 mmHg 58%
14:00 +33°C° 0.4 mm 3 mps 752 mmHg 55%
15:00 +33°C° 0.1 mm 3 mps 752 mmHg 57%
16:00 +31°C° 0.1 mm 3 mps 752 mmHg 59%
17:00 +31°C° 0.1 mm 3 mps 752 mmHg 61%
18:00 +30°C° 0.3 mm 2 mps 752 mmHg 67%
19:00 +28°C° 0.3 mm 2 mps 752 mmHg 72%
20:00 +27°C° 0.3 mm 1 mps 752 mmHg 78%
21:00 +26°C° 0.1 mm 1 mps 752 mmHg 80%
22:00 +25°C° 0.1 mm 1 mps 752 mmHg 82%
23:00 +24°C° 0.1 mm 1 mps 752 mmHg 85%

24 June, Thursday

Time Temperature Precipitation Wind Pressure Humidity
00:00 +23°C° 0.9 mm 1 mps 752 mmHg 87%
01:00 +23°C° 0.9 mm 1 mps 752 mmHg 89%
02:00 +22°C° 0.9 mm 1 mps 752 mmHg 91%
03:00 +22°C° 0.2 mm 1 mps 752 mmHg 90%
04:00 +23°C° 0.2 mm 1 mps 752 mmHg 90%
05:00 +23°C° 0.2 mm 1 mps 752 mmHg 89%
06:00 +24°C° 0.1 mm 1 mps 752 mmHg 87%
07:00 +25°C° 0.1 mm 1 mps 752 mmHg 84%
08:00 +26°C° 0.1 mm 1 mps 752 mmHg 82%
09:00 +27°C° 0.2 mm 1 mps 752 mmHg 77%
10:00 +29°C° 0.2 mm 1 mps 752 mmHg 72%
11:00 +30°C° 0.2 mm 2 mps 752 mmHg 67%
12:00 +31°C° 1 mm 2 mps 752 mmHg 65%
13:00 +31°C° 1 mm 2 mps 752 mmHg 63%
14:00 +32°C° 1 mm 2 mps 752 mmHg 60%
15:00 +30°C° 3.2 mm 3 mps 752 mmHg 68%
16:00 +28°C° 3.2 mm 5 mps 752 mmHg 76%
17:00 +26°C° 3.2 mm 7 mps 752 mmHg 84%
18:00 +24°C° 1.6 mm 6 mps 751 mmHg 84%
19:00 +22°C° 1.6 mm 4 mps 751 mmHg 84%
20:00 +21°C° 1.6 mm 3 mps 750 mmHg 83%
21:00 +20°C° 0.5 mm 3 mps 750 mmHg 85%
22:00 +20°C° 0.5 mm 3 mps 750 mmHg 87%
23:00 +20°C° 0.5 mm 3 mps 750 mmHg 89%

25 June, Friday

Time Temperature Precipitation Wind Pressure Humidity
00:00 +20°C° 1.3 mm 3 mps 750 mmHg 91%
01:00 +20°C° 1.3 mm 3 mps 750 mmHg 94%
02:00 +20°C° 1.3 mm 3 mps 750 mmHg 96%
03:00 +20°C° 0 mm 3 mps 749 mmHg 95%
04:00 +20°C° 0 mm 2 mps 749 mmHg 94%
05:00 +21°C° 0 mm 1 mps 749 mmHg 93%
06:00 +22°C° 0 mm 1 mps 749 mmHg 89%
07:00 +23°C° 0 mm 1 mps 749 mmHg 85%
08:00 +24°C° 0 mm 1 mps 749 mmHg 81%
09:00 +25°C° 0 mm 1 mps 749 mmHg 76%
10:00 +27°C° 0 mm 2 mps 749 mmHg 70%
11:00 +29°C° 0 mm 2 mps 749 mmHg 65%
12:00 +29°C° 0.2 mm 3 mps 748 mmHg 65%
13:00 +30°C° 0.2 mm 3 mps 748 mmHg 65%
14:00 +31°C° 0.2 mm 3 mps 748 mmHg 64%
15:00 +30°C° 1.7 mm 4 mps 748 mmHg 69%
16:00 +29°C° 1.7 mm 4 mps 747 mmHg 74%
17:00 +28°C° 1.7 mm 5 mps 747 mmHg 78%
18:00 +25°C° 1.7 mm 5 mps 747 mmHg 83%
19:00 +22°C° 1.7 mm 5 mps 747 mmHg 87%
20:00 +20°C° 1.7 mm 4 mps 747 mmHg 91%
21:00 +20°C° 0.5 mm 4 mps 747 mmHg 93%
22:00 +20°C° 0.5 mm 5 mps 747 mmHg 94%
23:00 +20°C° 0.5 mm 5 mps 747 mmHg 96%
Show more